| time (UTC) | temp F | wind direction | speed MPH | gust MPH | rain 1hr in | rain 24hr in | rain mn in | humidity % | barometer mb |
| 20260903143511 | 79 | 225 | 0.0 | 6.0 | 0.00 | 0.02 | 0.02 | 75 | 1011.2 |
| 20260903143030 | 78 | 103 | 0.0 | 2.0 | 0.00 | 0.02 | 0.02 | 76 | 1011.2 |
| 20260903142513 | 78 | 108 | 1.0 | 2.0 | 0.00 | 0.02 | 0.02 | 77 | 1011.2 |
| 20260903142010 | 78 | 109 | 0.0 | 2.0 | 0.00 | 0.02 | 0.02 | 75 | 1011.1 |
| 20260903141528 | 78 | 121 | 0.0 | 2.0 | 0.00 | 0.02 | 0.02 | 75 | 1011.1 |
| 20260903141008 | 79 | 121 | 0.0 | 2.0 | 0.00 | 0.02 | 0.02 | 74 | 1011.1 |
| 20260903140509 | 79 | 127 | 0.0 | 2.0 | 0.00 | 0.02 | 0.02 | 74 | 1011.1 |
| 20260903140034 | 79 | 109 | 0.0 | 2.0 | 0.00 | 0.02 | 0.02 | 75 | 1011.0 |
| 20260903135513 | 79 | 22 | 0.0 | 3.0 | 0.00 | 0.02 | 0.02 | 74 | 1011.0 |
| 20260903135014 | 79 | 216 | 0.0 | 3.0 | 0.00 | 0.02 | 0.02 | 79 | 1011.0 |
| 20260903134523 | 78 | 127 | 0.0 | 2.0 | 0.00 | 0.02 | 0.02 | 78 | 1011.0 |
| 20260903134014 | 77 | 127 | 0.0 | 2.0 | 0.00 | 0.02 | 0.02 | 77 | 1011.0 |
| 20260903133513 | 77 | 123 | 0.0 | 2.0 | 0.00 | 0.02 | 0.02 | 77 | 1011.1 |
| 20260903133021 | 77 | 123 | 0.0 | 2.0 | 0.00 | 0.02 | 0.02 | 77 | 1011.2 |
| 20260903132510 | 77 | 123 | 0.0 | 2.0 | 0.00 | 0.02 | 0.02 | 77 | 1011.2 |
| 20260903132014 | 77 | 123 | 0.0 | 2.0 | 0.00 | 0.02 | 0.02 | 77 | 1011.2 |
| 20260903131524 | 76 | 145 | 0.0 | 3.0 | 0.00 | 0.02 | 0.02 | 79 | 1011.3 |
| 20260903131015 | 76 | 103 | 1.0 | 3.0 | 0.00 | 0.02 | 0.02 | 79 | 1011.4 |
| 20260903130512 | 76 | 105 | 0.0 | 3.0 | 0.00 | 0.02 | 0.02 | 80 | 1011.5 |
| 20260903130017 | 75 | 33 | 0.0 | 2.0 | 0.00 | 0.02 | 0.02 | 83 | 1011.4 |
| 20260903125511 | 75 | 33 | 0.0 | 2.0 | 0.00 | 0.02 | 0.02 | 83 | 1011.4 |
| 20260903125010 | 75 | 352 | 0.0 | 2.0 | 0.00 | 0.02 | 0.02 | 84 | 1011.5 |
| 20260903124520 | 75 | 352 | 0.0 | 0.0 | 0.00 | 0.02 | 0.02 | 84 | 1011.6 |
| 20260903124013 | 75 | 352 | 0.0 | 0.0 | 0.00 | 0.02 | 0.02 | 85 | 1011.5 |
| 20260903123513 | 75 | 352 | 0.0 | 2.0 | 0.00 | 0.02 | 0.02 | 84 | 1011.6 |
| 20260903123032 | 75 | 352 | 0.0 | 2.0 | 0.00 | 0.02 | 0.02 | 84 | 1011.6 |
| 20260903122515 | 75 | 352 | 0.0 | 0.0 | 0.00 | 0.02 | 0.02 | 82 | 1011.4 |
| 20260903122016 | 75 | 352 | 0.0 | 0.0 | 0.00 | 0.02 | 0.02 | 84 | 1011.3 |
| 20260903121521 | 75 | 352 | 0.0 | 2.0 | 0.00 | 0.02 | 0.02 | 83 | 1011.2 |
| 20260903121014 | 75 | 352 | 0.0 | 2.0 | 0.00 | 0.02 | 0.02 | 82 | 1011.1 |
| 20260903120518 | 75 | 352 | 0.0 | 2.0 | 0.00 | 0.02 | 0.02 | 82 | 1011.0 |
| 20260903120027 | 74 | 352 | 0.0 | 1.0 | 0.00 | 0.02 | 0.02 | 84 | 1011.0 |
| 20260903115512 | 74 | 352 | 0.0 | 1.0 | 0.00 | 0.02 | 0.02 | 85 | 1011.0 |
| 20260903115017 | 74 | 352 | 0.0 | 2.0 | 0.00 | 0.02 | 0.02 | 84 | 1011.0 |
| 20260903114522 | 74 | 9 | 0.0 | 2.0 | 0.00 | 0.02 | 0.02 | 86 | 1011.0 |
| 20260903114011 | 74 | 9 | 0.0 | 2.0 | 0.00 | 0.02 | 0.02 | 87 | 1011.0 |
| 20260903113515 | 73 | 9 | 0.0 | 2.0 | 0.00 | 0.02 | 0.02 | 87 | 1010.9 |
| 20260903113026 | 73 | 9 | 0.0 | 2.0 | 0.00 | 0.02 | 0.02 | 88 | 1010.9 |
| 20260903112515 | 73 | 9 | 0.0 | 2.0 | 0.00 | 0.02 | 0.02 | 88 | 1010.8 |
| 20260903112015 | 73 | 9 | 0.0 | 2.0 | 0.00 | 0.02 | 0.02 | 89 | 1010.7 |
| 20260903111527 | 73 | 9 | 0.0 | 2.0 | 0.00 | 0.02 | 0.02 | 89 | 1010.6 |
| 20260903111004 | 73 | 10 | 0.0 | 2.0 | 0.01 | 0.02 | 0.02 | 88 | 1010.6 |
| 20260903110505 | 73 | 9 | 0.0 | 2.0 | 0.02 | 0.02 | 0.02 | 88 | 1010.6 |
| 20260903110004 | 73 | 10 | 0.0 | 2.0 | 0.02 | 0.02 | 0.02 | 87 | 1010.7 |
| 20260903105504 | 73 | 186 | 0.0 | 2.0 | 0.02 | 0.02 | 0.02 | 88 | 1010.7 |
| 20260903105002 | 73 | 186 | 0.0 | 2.0 | 0.02 | 0.02 | 0.02 | 87 | 1010.8 |
| 20260903104504 | 73 | 186 | 0.0 | 2.0 | 0.02 | 0.02 | 0.02 | 87 | 1010.9 |
| 20260903104004 | 73 | 186 | 0.0 | 2.0 | 0.02 | 0.02 | 0.02 | 87 | 1010.8 |
| 20260903103503 | 73 | 186 | 0.0 | 2.0 | 0.02 | 0.02 | 0.02 | 86 | 1010.9 |
| 20260903103003 | 73 | 186 | 0.0 | 1.0 | 0.02 | 0.02 | 0.02 | 85 | 1011.0 |
| 20260903102503 | 74 | 186 | 0.0 | 2.0 | 0.02 | 0.02 | 0.02 | 84 | 1011.0 |
| 20260903102004 | 75 | 186 | 0.0 | 2.0 | 0.02 | 0.02 | 0.02 | 81 | 1011.0 |
| 20260903101503 | 77 | 186 | 0.0 | 2.0 | 0.02 | 0.02 | 0.02 | 78 | 1011.0 |
| 20260903101007 | 79 | 186 | 1.0 | 3.0 | 0.01 | 0.01 | 0.01 | 70 | 1010.9 |
| 20260903100504 | 80 | 259 | 1.0 | 4.0 | 0.00 | 0.00 | 0.00 | 64 | 1011.0 |
| 20260903100004 | 80 | 254 | 1.0 | 4.0 | 0.00 | 0.00 | 0.00 | 64 | 1010.8 |
| 20260903095505 | 80 | 175 | 1.0 | 5.0 | 0.00 | 0.00 | 0.00 | 64 | 1010.6 |
| 20260903095003 | 80 | 225 | 1.0 | 5.0 | 0.00 | 0.00 | 0.00 | 64 | 1010.6 |
| 20260903094504 | 80 | 232 | 2.0 | 6.0 | 0.00 | 0.00 | 0.00 | 64 | 1010.5 |
| 20260903094005 | 80 | 194 | 1.0 | 6.0 | 0.00 | 0.00 | 0.00 | 64 | 1010.5 |
| 20260903093505 | 80 | 211 | 1.0 | 6.0 | 0.00 | 0.00 | 0.00 | 64 | 1010.5 |
| 20260903093003 | 80 | 186 | 1.0 | 4.0 | 0.00 | 0.00 | 0.00 | 64 | 1010.6 |
| 20260903092503 | 80 | 140 | 2.0 | 5.0 | 0.00 | 0.00 | 0.00 | 64 | 1010.6 |
| 20260903092003 | 80 | 252 | 1.0 | 5.0 | 0.00 | 0.00 | 0.00 | 64 | 1010.6 |
| 20260903091508 | 80 | 188 | 1.0 | 5.0 | 0.00 | 0.00 | 0.00 | 64 | 1010.6 |
| 20260903091004 | 80 | 187 | 0.0 | 4.0 | 0.00 | 0.00 | 0.00 | 64 | 1010.6 |
| 20260903090504 | 80 | 194 | 0.0 | 3.0 | 0.00 | 0.00 | 0.00 | 64 | 1010.6 |
| 20260903090015 | 80 | 144 | 1.0 | 3.0 | 0.00 | 0.00 | 0.00 | 64 | 1010.6 |
| 20260903085503 | 81 | 344 | 0.0 | 4.0 | 0.00 | 0.00 | 0.00 | 63 | 1010.6 |
| 20260903085002 | 81 | 173 | 1.0 | 4.0 | 0.00 | 0.00 | 0.00 | 63 | 1010.6 |
| 20260903084522 | 80 | 211 | 0.0 | 5.0 | 0.00 | 0.00 | 0.00 | 64 | 1010.6 |
| 20260903084005 | 81 | 168 | 0.0 | 5.0 | 0.00 | 0.00 | 0.00 | 63 | 1010.6 |
| 20260903083504 | 81 | 161 | 1.0 | 5.0 | 0.00 | 0.00 | 0.00 | 63 | 1010.6 |
| 20260903083010 | 81 | 173 | 1.0 | 4.0 | 0.00 | 0.00 | 0.00 | 62 | 1010.6 |
| 20260903082504 | 81 | 207 | 1.0 | 3.0 | 0.00 | 0.00 | 0.00 | 63 | 1010.6 |
| 20260903082003 | 81 | 215 | 1.0 | 3.0 | 0.00 | 0.00 | 0.00 | 62 | 1010.7 |
| 20260903081503 | 81 | 191 | 0.0 | 3.0 | 0.00 | 0.00 | 0.00 | 63 | 1010.6 |
| 20260903081004 | 81 | 227 | 1.0 | 5.0 | 0.00 | 0.00 | 0.00 | 61 | 1010.6 |
| 20260903080504 | 81 | 42 | 1.0 | 5.0 | 0.00 | 0.00 | 0.00 | 61 | 1010.7 |
| 20260903080008 | 82 | 144 | 1.0 | 4.0 | 0.00 | 0.00 | 0.00 | 61 | 1010.7 |
| 20260903075505 | 81 | 352 | 1.0 | 3.0 | 0.00 | 0.00 | 0.00 | 61 | 1010.7 |
| 20260903075005 | 81 | 230 | 0.0 | 2.0 | 0.00 | 0.00 | 0.00 | 62 | 1010.7 |
| 20260903074509 | 81 | 342 | 0.0 | 4.0 | 0.00 | 0.00 | 0.00 | 62 | 1010.6 |
| 20260903074006 | 81 | 55 | 0.0 | 4.0 | 0.00 | 0.00 | 0.00 | 63 | 1010.7 |
| 20260903073508 | 81 | 100 | 0.0 | 2.0 | 0.00 | 0.00 | 0.00 | 63 | 1010.7 |
| 20260903073009 | 81 | 159 | 0.0 | 2.0 | 0.00 | 0.00 | 0.00 | 62 | 1010.7 |
| 20260903072505 | 82 | 186 | 0.0 | 6.0 | 0.00 | 0.00 | 0.00 | 62 | 1010.7 |
| 20260903072007 | 82 | 170 | 1.0 | 6.0 | 0.00 | 0.00 | 0.00 | 62 | 1010.6 |
| 20260903071511 | 82 | 241 | 0.0 | 4.0 | 0.00 | 0.00 | 0.00 | 61 | 1010.7 |
| 20260903071003 | 82 | 264 | 1.0 | 4.0 | 0.00 | 0.00 | 0.00 | 61 | 1010.7 |
| 20260903070507 | 82 | 198 | 0.0 | 3.0 | 0.00 | 0.00 | 0.00 | 62 | 1010.8 |
| 20260903070010 | 82 | 174 | 0.0 | 8.0 | 0.00 | 0.00 | 0.00 | 62 | 1010.7 |
| 20260903065506 | 82 | 198 | 1.0 | 8.0 | 0.00 | 0.00 | 0.00 | 61 | 1010.8 |
| 20260903065005 | 82 | 254 | 1.0 | 5.0 | 0.00 | 0.00 | 0.00 | 61 | 1010.8 |
| 20260903064510 | 82 | 214 | 1.0 | 5.0 | 0.00 | 0.00 | 0.00 | 60 | 1010.7 |
| 20260903064006 | 83 | 140 | 2.0 | 5.0 | 0.00 | 0.00 | 0.00 | 60 | 1010.7 |
| 20260903063505 | 83 | 253 | 1.0 | 8.0 | 0.00 | 0.00 | 0.00 | 60 | 1010.7 |
| 20260903063011 | 83 | 186 | 1.0 | 8.0 | 0.00 | 0.00 | 0.00 | 60 | 1010.7 |
| 20260903062507 | 82 | 246 | 1.0 | 4.0 | 0.00 | 0.00 | 0.00 | 61 | 1010.8 |
| 20260903062006 | 83 | 255 | 1.0 | 4.0 | 0.00 | 0.00 | 0.00 | 60 | 1010.8 |
| 20260903061511 | 83 | 330 | 0.0 | 4.0 | 0.00 | 0.00 | 0.00 | 60 | 1010.7 |
| 20260903061008 | 83 | 215 | 1.0 | 3.0 | 0.00 | 0.00 | 0.00 | 60 | 1010.8 |
| 20260903060506 | 83 | 171 | 1.0 | 5.0 | 0.00 | 0.00 | 0.00 | 60 | 1010.9 |
| 20260903060013 | 83 | 234 | 1.0 | 5.0 | 0.00 | 0.00 | 0.00 | 60 | 1010.9 |
| 20260903055508 | 83 | 255 | 1.0 | 3.0 | 0.00 | 0.00 | 0.00 | 60 | 1010.9 |
| 20260903055007 | 83 | 190 | 0.0 | 7.0 | 0.00 | 0.00 | 0.00 | 60 | 1010.9 |
| 20260903054511 | 83 | 225 | 1.0 | 7.0 | 0.00 | 0.00 | 0.00 | 59 | 1010.8 |
| 20260903054008 | 83 | 245 | 0.0 | 4.0 | 0.00 | 0.00 | 0.00 | 60 | 1010.9 |
| 20260903053508 | 83 | 177 | 0.0 | 4.0 | 0.00 | 0.00 | 0.00 | 60 | 1010.8 |
| 20260903053026 | 83 | 257 | 0.0 | 9.0 | 0.00 | 0.00 | 0.00 | 59 | 1010.8 |
| 20260903052507 | 83 | 215 | 2.0 | 9.0 | 0.00 | 0.00 | 0.00 | 59 | 1010.8 |
| 20260903052010 | 84 | 230 | 1.0 | 6.0 | 0.00 | 0.00 | 0.00 | 58 | 1010.8 |
| 20260903051513 | 84 | 200 | 1.0 | 6.0 | 0.00 | 0.00 | 0.00 | 58 | 1010.7 |
| 20260903051010 | 84 | 304 | 1.0 | 6.0 | 0.00 | 0.00 | 0.00 | 58 | 1010.8 |
| 20260903050509 | 84 | 159 | 2.0 | 7.0 | 0.00 | 0.00 | 0.00 | 57 | 1010.8 |
| 20260903050016 | 84 | 195 | 2.0 | 5.0 | 0.00 | 0.00 | 0.00 | 58 | 1010.8 |
| 20260903045510 | 84 | 200 | 2.0 | 5.0 | 0.00 | 0.00 | 0.00 | 57 | 1010.8 |
| 20260903045008 | 84 | 295 | 2.0 | 7.0 | 0.00 | 0.00 | 0.00 | 58 | 1010.9 |
| 20260903044519 | 84 | 110 | 1.0 | 7.0 | 0.00 | 0.00 | 0.00 | 58 | 1010.9 |
| 20260903044011 | 84 | 221 | 1.0 | 5.0 | 0.00 | 0.00 | 0.00 | 58 | 1010.9 |
| 20260903043516 | 84 | 317 | 0.0 | 5.0 | 0.00 | 0.00 | 0.00 | 57 | 1010.9 |
| 20260903043028 | 84 | 213 | 1.0 | 6.0 | 0.00 | 0.00 | 0.00 | 57 | 1010.9 |
| 20260903042510 | 84 | 175 | 1.0 | 6.0 | 0.00 | 0.00 | 0.00 | 57 | 1010.8 |
| 20260903042008 | 84 | 242 | 1.0 | 5.0 | 0.00 | 0.00 | 0.00 | 58 | 1010.8 |
| 20260903041520 | 84 | 207 | 1.0 | 6.0 | 0.00 | 0.00 | 0.00 | 58 | 1010.8 |
| 20260903041010 | 84 | 193 | 1.0 | 6.0 | 0.00 | 0.00 | 0.00 | 58 | 1010.8 |
| 20260903040511 | 84 | 227 | 1.0 | 5.0 | 0.00 | 0.00 | 0.00 | 58 | 1010.8 |
| 20260903040016 | 84 | 131 | 0.0 | 5.0 | 0.00 | 0.00 | 0.00 | 59 | 1010.8 |
| 20260903035510 | 84 | 227 | 1.0 | 3.0 | 0.00 | 0.00 | 0.00 | 58 | 1010.7 |
| 20260903035011 | 84 | 315 | 1.0 | 3.0 | 0.00 | 0.00 | 0.00 | 58 | 1010.8 |
| 20260903034518 | 85 | 253 | 1.0 | 8.0 | 0.00 | 0.00 | 0.00 | 58 | 1010.7 |
| 20260903034010 | 85 | 240 | 2.0 | 8.0 | 0.00 | 0.00 | 0.00 | 58 | 1010.7 |
| 20260903033512 | 85 | 124 | 1.0 | 6.0 | 0.00 | 0.00 | 0.00 | 57 | 1010.7 |
| 20260903033017 | 85 | 177 | 2.0 | 6.0 | 0.00 | 0.00 | 0.00 | 57 | 1010.7 |
| 20260903032515 | 85 | 203 | 1.0 | 3.0 | 0.00 | 0.00 | 0.00 | 58 | 1010.7 |
| 20260903032013 | 85 | 172 | 1.0 | 5.0 | 0.00 | 0.00 | 0.00 | 57 | 1010.7 |
| 20260903031518 | 85 | 229 | 1.0 | 5.0 | 0.00 | 0.00 | 0.00 | 57 | 1010.7 |
| 20260903031009 | 85 | 163 | 1.0 | 7.0 | 0.00 | 0.00 | 0.00 | 56 | 1010.7 |
| 20260903030511 | 86 | 227 | 3.0 | 7.0 | 0.00 | 0.00 | 0.00 | 56 | 1010.7 |
| 20260903030022 | 86 | 172 | 2.0 | 7.0 | 0.00 | 0.00 | 0.00 | 56 | 1010.8 |
| 20260903025512 | 86 | 167 | 1.0 | 4.0 | 0.00 | 0.00 | 0.00 | 57 | 1010.7 |
| 20260903025011 | 86 | 237 | 0.0 | 3.0 | 0.00 | 0.00 | 0.00 | 56 | 1010.6 |
| 20260903024521 | 86 | 202 | 1.0 | 6.0 | 0.00 | 0.00 | 0.00 | 56 | 1010.6 |
| 20260903024012 | 86 | 297 | 1.0 | 6.0 | 0.00 | 0.00 | 0.00 | 56 | 1010.6 |
| 20260903023512 | 86 | 9 | 1.0 | 8.0 | 0.00 | 0.00 | 0.00 | 56 | 1010.5 |
| 20260903023020 | 86 | 229 | 0.0 | 8.0 | 0.00 | 0.00 | 0.00 | 55 | 1010.5 |
| 20260903022513 | 86 | 211 | 0.0 | 5.0 | 0.00 | 0.00 | 0.00 | 55 | 1010.4 |
| 20260903022011 | 86 | 195 | 1.0 | 4.0 | 0.00 | 0.00 | 0.00 | 56 | 1010.2 |
| 20260903021510 | 87 | 209 | 1.0 | 4.0 | 0.00 | 0.00 | 0.00 | 55 | 1010.3 |
| 20260903021007 | 87 | 225 | 1.0 | 4.0 | 0.00 | 0.00 | 0.00 | 56 | 1010.2 |
| 20260903020508 | 87 | 202 | 1.0 | 4.0 | 0.00 | 0.00 | 0.00 | 56 | 1010.1 |
| 20260903020006 | 87 | 155 | 1.0 | 4.0 | 0.00 | 0.00 | 0.00 | 56 | 1010.0 |
| 20260903015507 | 87 | 123 | 1.0 | 3.0 | 0.00 | 0.00 | 0.00 | 57 | 1010.0 |
| 20260903015012 | 87 | 172 | 1.0 | 3.0 | 0.00 | 0.00 | 0.00 | 58 | 1009.9 |
| 20260903014520 | 87 | 175 | 1.0 | 3.0 | 0.00 | 0.00 | 0.00 | 58 | 1009.9 |
| 20260903014012 | 87 | 128 | 0.0 | 4.0 | 0.00 | 0.00 | 0.00 | 58 | 1009.9 |
| 20260903013507 | 87 | 192 | 0.0 | 4.0 | 0.00 | 0.00 | 0.00 | 58 | 1009.9 |
| 20260903013004 | 87 | 218 | 1.0 | 4.0 | 0.00 | 0.00 | 0.00 | 57 | 1009.9 |
| 20260903012504 | 87 | 130 | 0.0 | 2.0 | 0.00 | 0.00 | 0.00 | 57 | 1009.8 |
| 20260903012006 | 88 | 202 | 0.0 | 4.0 | 0.00 | 0.00 | 0.00 | 57 | 1009.8 |
| 20260903011508 | 88 | 146 | 0.0 | 4.0 | 0.00 | 0.00 | 0.00 | 57 | 1009.8 |
| 20260903011008 | 88 | 201 | 1.0 | 4.0 | 0.00 | 0.00 | 0.00 | 55 | 1009.7 |
| 20260903010507 | 88 | 126 | 0.0 | 3.0 | 0.00 | 0.00 | 0.00 | 56 | 1009.7 |
| 20260903010006 | 89 | 179 | 1.0 | 3.0 | 0.00 | 0.00 | 0.00 | 55 | 1009.8 |
| 20260903005508 | 89 | 188 | 1.0 | 3.0 | 0.00 | 0.00 | 0.00 | 56 | 1009.8 |
| 20260903005005 | 89 | 226 | 1.0 | 3.0 | 0.00 | 0.00 | 0.00 | 55 | 1009.8 |
| 20260903004518 | 89 | 217 | 0.0 | 2.0 | 0.00 | 0.00 | 0.00 | 55 | 1009.8 |
| 20260903004010 | 89 | 198 | 0.0 | 2.0 | 0.00 | 0.00 | 0.00 | 57 | 1009.8 |
| 20260903003505 | 89 | 217 | 0.0 | 2.0 | 0.00 | 0.00 | 0.00 | 55 | 1009.8 |
| 20260903003003 | 90 | 144 | 0.0 | 4.0 | 0.00 | 0.00 | 0.00 | 54 | 1009.8 |
| 20260903002508 | 91 | 180 | 0.0 | 4.0 | 0.00 | 0.00 | 0.00 | 53 | 1009.8 |
| 20260903002005 | 91 | 219 | 1.0 | 4.0 | 0.00 | 0.00 | 0.00 | 53 | 1009.8 |
| 20260903001510 | 91 | 123 | 1.0 | 4.0 | 0.00 | 0.00 | 0.00 | 54 | 1009.8 |
| 20260903001003 | 91 | 152 | 0.0 | 4.0 | 0.00 | 0.00 | 0.00 | 54 | 1009.8 |
| 20260903000507 | 92 | 225 | 1.0 | 4.0 | 0.00 | 0.00 | 0.00 | 53 | 1009.8 |
| 20260903000008 | 92 | 222 | 0.0 | 4.0 | 0.00 | 0.00 | 0.00 | 52 | 1009.8 |
| 20260902235504 | 92 | 153 | 1.0 | 4.0 | 0.00 | 0.00 | 0.00 | 1009.8 | |
| 20260902235009 | 92 | 204 | 0.0 | 3.0 | 0.00 | 0.00 | 0.00 | 51 | 1009.9 |
| 20260902234515 | 93 | 86 | 0.0 | 2.0 | 0.00 | 0.00 | 0.00 | 51 | 1009.9 |
| 20260902234002 | 93 | 164 | 0.0 | 5.0 | 0.00 | 0.00 | 0.00 | 50 | 1009.9 |
| 20260902233503 | 93 | 169 | 1.0 | 5.0 | 0.00 | 0.00 | 0.00 | 50 | 1009.9 |
| 20260902233012 | 93 | 304 | 0.0 | 4.0 | 0.00 | 0.00 | 0.00 | 54 | 1009.9 |
| 20260902232514 | 93 | 296 | 0.0 | 4.0 | 0.00 | 0.00 | 0.00 | 53 | 1009.9 |
| 20260902232010 | 94 | 144 | 0.0 | 5.0 | 0.00 | 0.00 | 0.00 | 49 | 1009.9 |
| 20260902231512 | 94 | 324 | 0.0 | 5.0 | 0.00 | 0.00 | 0.00 | 48 | 1009.9 |
| 20260902231011 | 94 | 256 | 1.0 | 5.0 | 0.00 | 0.00 | 0.00 | 48 | 1010.0 |
| 20260902230502 | 95 | 223 | 1.0 | 5.0 | 0.00 | 0.00 | 0.00 | 48 | 1009.9 |
| 20260902230009 | 95 | 204 | 1.0 | 5.0 | 0.00 | 0.00 | 0.00 | 47 | 1010.0 |
| 20260902225507 | 95 | 300 | 2.0 | 7.0 | 0.00 | 0.00 | 0.00 | 47 | 1010.0 |
| 20260902225008 | 95 | 308 | 2.0 | 7.0 | 0.00 | 0.00 | 0.00 | 48 | 1010.0 |
| 20260902224514 | 95 | 132 | 2.0 | 9.0 | 0.00 | 0.00 | 0.00 | 46 | 1010.0 |
| 20260902224008 | 95 | 240 | 1.0 | 9.0 | 0.00 | 0.00 | 0.00 | 47 | 1010.0 |
| 20260902223505 | 95 | 331 | 2.0 | 9.0 | 0.00 | 0.00 | 0.00 | 50 | 1010.0 |
| 20260902223019 | 95 | 167 | 2.0 | 7.0 | 0.00 | 0.00 | 0.00 | 47 | 1010.0 |
| 20260902222505 | 96 | 134 | 1.0 | 5.0 | 0.00 | 0.00 | 0.00 | 47 | 1010.1 |
| 20260902222011 | 96 | 18 | 1.0 | 7.0 | 0.00 | 0.00 | 0.00 | 47 | 1010.0 |
| 20260902221530 | 96 | 9 | 2.0 | 9.0 | 0.00 | 0.00 | 0.00 | 47 | 1010.0 |
| 20260902221009 | 96 | 47 | 2.0 | 9.0 | 0.00 | 0.00 | 0.00 | 47 | 1010.0 |
| 20260902220517 | 96 | 137 | 1.0 | 11.0 | 0.00 | 0.00 | 0.00 | 48 | 1010.1 |
| 20260902220028 | 96 | 242 | 3.0 | 11.0 | 0.00 | 0.00 | 0.00 | 48 | 1010.0 |
| 20260902215514 | 96 | 167 | 2.0 | 8.0 | 0.00 | 0.00 | 0.00 | 48 | 1010.1 |
| 20260902215007 | 96 | 30 | 3.0 | 8.0 | 0.00 | 0.00 | 0.00 | 46 | 1010.1 |
| 20260902214512 | 96 | 217 | 2.0 | 8.0 | 0.00 | 0.00 | 0.00 | 46 | 1010.1 |
| 20260902214007 | 96 | 263 | 2.0 | 8.0 | 0.00 | 0.00 | 0.00 | 47 | 1010.1 |
| 20260902213509 | 96 | 258 | 1.0 | 6.0 | 0.00 | 0.00 | 0.00 | 47 | 1010.1 |
| 20260902213014 | 96 | 262 | 1.0 | 6.0 | 0.00 | 0.00 | 0.00 | 47 | 1010.1 |
| 20260902212511 | 96 | 136 | 1.0 | 9.0 | 0.00 | 0.00 | 0.00 | 49 | 1010.2 |
| 20260902212014 | 96 | 215 | 2.0 | 9.0 | 0.00 | 0.00 | 0.00 | 47 | 1010.1 |
| 20260902211512 | 96 | 316 | 2.0 | 12.0 | 0.00 | 0.00 | 0.00 | 47 | 1010.2 |
| 20260902211011 | 96 | 264 | 3.0 | 10.0 | 0.00 | 0.00 | 0.00 | 45 | 1010.2 |
| 20260902210511 | 96 | 301 | 2.0 | 12.0 | 0.00 | 0.00 | 0.00 | 47 | 1010.2 |
| 20260902210047 | 96 | 273 | 2.0 | 12.0 | 0.00 | 0.00 | 0.00 | 46 | 1010.4 |
| 20260902205507 | 96 | 227 | 3.0 | 12.0 | 0.00 | 0.00 | 0.00 | 47 | 1010.4 |
| 20260902205009 | 96 | 251 | 2.0 | 9.0 | 0.00 | 0.00 | 0.00 | 49 | 1010.4 |
| 20260902204533 | 96 | 83 | 2.0 | 9.0 | 0.00 | 0.00 | 0.00 | 47 | 1010.5 |
| 20260902204014 | 96 | 329 | 2.0 | 9.0 | 0.00 | 0.00 | 0.00 | 47 | 1010.5 |
| 20260902203506 | 96 | 223 | 2.0 | 12.0 | 0.00 | 0.00 | 0.00 | 49 | 1010.6 |
| 20260902203012 | 95 | 248 | 4.0 | 12.0 | 0.00 | 0.00 | 0.00 | 47 | 1010.7 |
| 20260902202511 | 95 | 269 | 4.0 | 12.0 | 0.00 | 0.00 | 0.00 | 47 | 1010.7 |
| 20260902202010 | 95 | 98 | 2.0 | 11.0 | 0.00 | 0.00 | 0.00 | 47 | 1010.7 |
| 20260902201524 | 95 | 304 | 3.0 | 11.0 | 0.00 | 0.00 | 0.00 | 47 | 1010.7 |
| 20260902201009 | 95 | 333 | 1.0 | 10.0 | 0.00 | 0.00 | 0.00 | 47 | 1010.8 |
| 20260902200513 | 96 | 336 | 2.0 | 11.0 | 0.00 | 0.00 | 0.00 | 46 | 1010.7 |
| 20260902200016 | 96 | 289 | 2.0 | 11.0 | 0.00 | 0.00 | 0.00 | 45 | 1010.7 |
| 20260902195508 | 95 | 246 | 1.0 | 7.0 | 0.00 | 0.00 | 0.00 | 48 | 1010.7 |
| 20260902195015 | 95 | 299 | 2.0 | 8.0 | 0.00 | 0.00 | 0.00 | 50 | 1010.8 |
| 20260902194534 | 95 | 282 | 2.0 | 8.0 | 0.00 | 0.00 | 0.00 | 49 | 1010.8 |
| 20260902194011 | 94 | 54 | 2.0 | 5.0 | 0.00 | 0.00 | 0.00 | 49 | 1010.9 |
| 20260902193514 | 93 | 39 | 1.0 | 8.0 | 0.00 | 0.00 | 0.00 | 51 | 1011.0 |
| 20260902193016 | 93 | 285 | 2.0 | 8.0 | 0.00 | 0.00 | 0.00 | 50 | 1011.1 |
| 20260902192508 | 94 | 173 | 1.0 | 6.0 | 0.00 | 0.00 | 0.00 | 52 | 1011.1 |
| 20260902192011 | 93 | 317 | 1.0 | 8.0 | 0.00 | 0.00 | 0.00 | 51 | 1011.2 |
| 20260902191517 | 93 | 128 | 3.0 | 8.0 | 0.00 | 0.00 | 0.00 | 48 | 1011.2 |
| 20260902191010 | 93 | 226 | 1.0 | 5.0 | 0.00 | 0.00 | 0.00 | 48 | 1011.1 |
| 20260902190517 | 93 | 79 | 1.0 | 4.0 | 0.00 | 0.00 | 0.00 | 50 | 1011.2 |
| 20260902190034 | 93 | 11 | 0.0 | 7.0 | 0.00 | 0.00 | 0.00 | 50 | 1011.3 |
| 20260902185517 | 93 | 346 | 1.0 | 7.0 | 0.00 | 0.00 | 0.00 | 51 | 1011.3 |
| 20260902185011 | 91 | 198 | 2.0 | 7.0 | 0.00 | 0.00 | 0.00 | 50 | 1011.5 |
| 20260902184531 | 91 | 218 | 1.0 | 6.0 | 0.00 | 0.00 | 0.00 | 51 | 1011.6 |
| 20260902184016 | 91 | 241 | 2.0 | 6.0 | 0.00 | 0.00 | 0.00 | 52 | 1011.7 |
| 20260902183515 | 91 | 80 | 1.0 | 5.0 | 0.00 | 0.00 | 0.00 | 52 | 1011.6 |
| 20260902183021 | 92 | 167 | 1.0 | 4.0 | 0.00 | 0.00 | 0.00 | 52 | 1011.6 |
| 20260902182517 | 92 | 284 | 1.0 | 5.0 | 0.00 | 0.00 | 0.00 | 52 | 1011.7 |
| 20260902182019 | 90 | 12 | 2.0 | 5.0 | 0.00 | 0.00 | 0.00 | 53 | 1011.8 |
| 20260902181516 | 90 | 160 | 1.0 | 6.0 | 0.00 | 0.00 | 0.00 | 55 | 1011.9 |
| 20260902181014 | 89 | 275 | 2.0 | 6.0 | 0.00 | 0.00 | 0.00 | 55 | 1012.0 |
| 20260902180513 | 89 | 226 | 1.0 | 6.0 | 0.00 | 0.00 | 0.00 | 55 | 1012.0 |
| 20260902180020 | 88 | 80 | 0.0 | 6.0 | 0.00 | 0.00 | 0.00 | 54 | 1012.1 |
| 20260902175516 | 88 | 259 | 1.0 | 6.0 | 0.00 | 0.00 | 0.00 | 53 | 1012.1 |
| 20260902175012 | 89 | 187 | 2.0 | 7.0 | 0.00 | 0.00 | 0.00 | 53 | 1012.2 |
| 20260902174525 | 90 | 47 | 1.0 | 7.0 | 0.00 | 0.00 | 0.00 | 54 | 1012.2 |
| 20260902174011 | 90 | 269 | 1.0 | 6.0 | 0.00 | 0.00 | 0.00 | 52 | 1012.3 |
| 20260902173516 | 90 | 288 | 1.0 | 7.0 | 0.00 | 0.00 | 0.00 | 53 | 1012.3 |
| 20260902173030 | 90 | 360 | 2.0 | 8.0 | 0.00 | 0.00 | 0.00 | 53 | 1012.4 |
| 20260902172519 | 89 | 227 | 3.0 | 8.0 | 0.00 | 0.00 | 0.00 | 52 | 1012.4 |
| 20260902172014 | 89 | 291 | 1.0 | 4.0 | 0.00 | 0.00 | 0.00 | 54 | 1012.4 |
| 20260902171529 | 89 | 120 | 1.0 | 6.0 | 0.00 | 0.00 | 0.00 | 54 | 1012.4 |
| 20260902171016 | 90 | 165 | 0.0 | 7.0 | 0.00 | 0.00 | 0.00 | 53 | 1012.4 |
| 20260902170512 | 89 | 214 | 2.0 | 7.0 | 0.00 | 0.00 | 0.00 | 55 | 1012.4 |
| 20260902170025 | 89 | 267 | 1.0 | 4.0 | 0.00 | 0.00 | 0.00 | 57 | 1012.5 |
| 20260902165512 | 88 | 327 | 0.0 | 3.0 | 0.00 | 0.00 | 0.00 | 57 | 1012.5 |
| 20260902165013 | 88 | 350 | 1.0 | 4.0 | 0.00 | 0.00 | 0.00 | 55 | 1012.4 |
| 20260902164524 | 88 | 296 | 1.0 | 4.0 | 0.00 | 0.00 | 0.00 | 55 | 1012.5 |
| 20260902164015 | 88 | 99 | 1.0 | 4.0 | 0.00 | 0.00 | 0.00 | 55 | 1012.5 |
| 20260902163516 | 85 | 217 | 1.0 | 4.0 | 0.00 | 0.00 | 0.00 | 58 | 1012.5 |
| 20260902163027 | 86 | 246 | 0.0 | 2.0 | 0.00 | 0.00 | 0.00 | 58 | 1012.5 |
| 20260902162513 | 86 | 248 | 0.0 | 4.0 | 0.00 | 0.00 | 0.00 | 57 | 1012.5 |
| 20260902162015 | 86 | 224 | 1.0 | 8.0 | 0.00 | 0.00 | 0.00 | 53 | 1012.5 |
| 20260902161529 | 87 | 349 | 2.0 | 8.0 | 0.00 | 0.00 | 0.00 | 52 | 1012.5 |
| 20260902161013 | 89 | 263 | 1.0 | 6.0 | 0.00 | 0.00 | 0.00 | 52 | 1012.5 |
| 20260902160516 | 89 | 293 | 2.0 | 5.0 | 0.00 | 0.00 | 0.00 | 54 | 1012.5 |
| 20260902160024 | 87 | 263 | 1.0 | 4.0 | 0.00 | 0.00 | 0.00 | 60 | 1012.5 |
| 20260902155520 | 85 | 296 | 1.0 | 2.0 | 0.00 | 0.00 | 0.00 | 63 | 1012.4 |
| 20260902155020 | 83 | 205 | 0.0 | 2.0 | 0.00 | 0.00 | 0.00 | 66 | 1012.5 |
| 20260902154522 | 82 | 57 | 0.0 | 2.0 | 0.00 | 0.00 | 0.00 | 64 | 1012.6 |
| 20260902154013 | 83 | 250 | 0.0 | 2.0 | 0.00 | 0.00 | 0.00 | 64 | 1012.5 |
| 20260902153514 | 82 | 232 | 0.0 | 5.0 | 0.00 | 0.00 | 0.00 | 63 | 1012.5 |
| 20260902153029 | 82 | 184 | 0.0 | 5.0 | 0.00 | 0.00 | 0.00 | 65 | 1012.6 |
| 20260902152515 | 82 | 213 | 0.0 | 5.0 | 0.00 | 0.00 | 0.00 | 63 | 1012.6 |
| 20260902152016 | 82 | 266 | 0.0 | 5.0 | 0.00 | 0.00 | 0.00 | 63 | 1012.5 |
| 20260902151526 | 83 | 253 | 0.0 | 4.0 | 0.00 | 0.00 | 0.00 | 65 | 1012.6 |
| 20260902151017 | 83 | 184 | 0.0 | 4.0 | 0.00 | 0.00 | 0.00 | 64 | 1012.5 |
| 20260902150512 | 82 | 213 | 1.0 | 3.0 | 0.00 | 0.00 | 0.00 | 66 | 1012.5 |
| 20260902150029 | 82 | 146 | 0.0 | 2.0 | 0.00 | 0.00 | 0.00 | 68 | 1012.5 |
| 20260902145516 | 81 | 121 | 0.0 | 2.0 | 0.00 | 0.00 | 0.00 | 67 | 1012.5 |
| 20260902145018 | 80 | 205 | 0.0 | 2.0 | 0.00 | 0.00 | 0.00 | 71 | 1012.4 |
| 20260902144537 | 80 | 165 | 1.0 | 2.0 | 0.00 | 0.00 | 0.00 | 69 | 1012.4 |
| 20260902144014 | 79 | 269 | 1.0 | 2.0 | 0.00 | 0.00 | 0.00 | 69 | 1012.5 |